This is the latest recevied weather packets stored in our database for station/object KD0ISH. If no packets are shown the sender has not sent any weather packets the latest 10 day(s).
| Time | Temp. | Humidity | Pressure | Rain* | Wind** | Luminosity | Snow |
|---|---|---|---|---|---|---|---|
| 1777019914 | 15° C | 99% | 1004.5 hPa | 0 mm | - | 0 W/m² | - |
| 1777019610 | 15° C | 99% | 1005.4 hPa | 0 mm | - | 0 W/m² | - |
| 1777019307 | 15° C | 99% | 1005.6 hPa | 0 mm | - | 0 W/m² | - |
| 1777019003 | 15° C | 99% | 1005.5 hPa | 0 mm | - | 0 W/m² | - |
| 1777018701 | 15° C | 99% | 1004.7 hPa | 0 mm | - | 0 W/m² | - |
| 1777018398 | 15° C | 99% | 1004.8 hPa | 0 mm | - | 0 W/m² | - |
| 1777018095 | 15° C | 99% | 1004.7 hPa | 0 mm | - | 0 W/m² | - |
| 1777017790 | 15° C | 99% | 1006 hPa | 0 mm | - | 0 W/m² | - |
| 1777017488 | 15° C | 99% | 1005.7 hPa | 1.78 mm | - | 0 W/m² | - |
| 1777017184 | 15° C | 99% | 1005.7 hPa | 3.05 mm | - | 0 W/m² | - |
| 1777016880 | 15° C | 99% | 1006.6 hPa | 1.27 mm | - | 0 W/m² | - |
| 1777016576 | 15° C | 99% | 1007.2 hPa | 1.78 mm | - | 0 W/m² | - |
| 1777016273 | 15° C | 99% | 1007.7 hPa | 1.78 mm | - | 0 W/m² | - |
| 1777015970 | 15° C | 99% | 1006.7 hPa | 1.78 mm | - | 0 W/m² | - |
| 1777015667 | 15° C | 99% | 1006.7 hPa | 3.05 mm | - | 0 W/m² | - |
| 1777015364 | 15° C | 98% | 1006.9 hPa | 6.1 mm | - | 0 W/m² | - |
| 1777015059 | 15° C | 98% | 1007.8 hPa | 8.89 mm | - | 0 W/m² | - |
| 1777014754 | 15° C | 98% | 1007.5 hPa | 8.89 mm | - | 0 W/m² | - |
| 1777014450 | 15° C | 98% | 1007.9 hPa | 4.83 mm | - | 0 W/m² | - |
| 1777014144 | 15° C | 97% | 1008.1 hPa | 6.6 mm | - | 0 W/m² | - |
| 1777013841 | 15.56° C | 97% | 1008.3 hPa | 8.89 mm | - | 0 W/m² | - |
| 1777013538 | 15° C | 97% | 1008.5 hPa | 8.89 mm | - | 0 W/m² | - |
| 1777013236 | 15.56° C | 96% | 1008.4 hPa | 7.11 mm | - | 0 W/m² | - |
| 1777012933 | 15.56° C | 96% | 1008.4 hPa | 4.83 mm | - | 0 W/m² | - |
| 1777012628 | 15° C | 96% | 1008.8 hPa | 3.05 mm | - | 0 W/m² | - |
* Rain latest hour (hover to see other rain measurements)
** Current wind speed in m/s (hover to see current wind gust speed)